When you browse on this site, cookies collect data to enhance your experience and personalize the content and advertising you see.
Visit our Privacy Policy to learn more. By continuing to use the site, you agree to this use of cookies and data.

Hourly Weather Kobylinskiy Hutor

Today, 5 July, Sunday

Time Temperature Precipitation Wind Pressure Humidity
00:00 +21°C° 0.1 mm 1 mps 736 mmHg 91%
01:00 +21°C° 0.1 mm 1 mps 736 mmHg 91%
02:00 +21°C° 0 mm 1 mps 736 mmHg 91%
03:00 +21°C° 0.2 mm 1 mps 736 mmHg 91%
04:00 +21°C° 0.2 mm 1 mps 736 mmHg 91%
05:00 +21°C° 0.2 mm 1 mps 735 mmHg 92%
06:00 +20°C° 0 mm 0 mps 735 mmHg 88%
07:00 +22°C° 0 mm 0 mps 735 mmHg 83%
08:00 +23°C° 0 mm 0 mps 736 mmHg 78%
09:00 +23°C° 0 mm 0 mps 736 mmHg 75%
10:00 +26°C° 0 mm 1 mps 736 mmHg 71%
11:00 +27°C° 0 mm 1 mps 736 mmHg 68%
12:00 +27°C° 0.2 mm 1 mps 736 mmHg 69%
13:00 +27°C° 0.2 mm 2 mps 735 mmHg 70%
14:00 +27°C° 0.2 mm 2 mps 735 mmHg 71%
15:00 +26°C° 3.1 mm 2 mps 735 mmHg 77%
16:00 +24°C° 3.1 mm 2 mps 735 mmHg 83%
17:00 +23°C° 3.1 mm 2 mps 735 mmHg 89%
18:00 +22°C° 0 mm 1 mps 735 mmHg 90%
19:00 +21°C° 0 mm 1 mps 735 mmHg 91%
20:00 +21°C° 0 mm 1 mps 735 mmHg 92%
21:00 +20°C° 0.1 mm 1 mps 735 mmHg 93%
22:00 +20°C° 0.1 mm 1 mps 735 mmHg 93%
23:00 +20°C° 0.1 mm 1 mps 735 mmHg 94%

Tomorrow, 6 July, Monday

Time Temperature Precipitation Wind Pressure Humidity
00:00 +19°C° 0 mm 1 mps 735 mmHg 94%
01:00 +19°C° 0 mm 1 mps 735 mmHg 94%
02:00 +17°C° 0 mm 2 mps 735 mmHg 94%
03:00 +18°C° 0 mm 2 mps 735 mmHg 94%
04:00 +18°C° 0 mm 2 mps 735 mmHg 94%
05:00 +18°C° 0 mm 2 mps 735 mmHg 94%
06:00 +20°C° 0 mm 1 mps 735 mmHg 89%
07:00 +22°C° 0 mm 1 mps 735 mmHg 84%
08:00 +23°C° 0 mm 1 mps 736 mmHg 80%
09:00 +24°C° 0 mm 1 mps 736 mmHg 75%
10:00 +25°C° 0 mm 1 mps 736 mmHg 70%
11:00 +26°C° 0 mm 1 mps 736 mmHg 65%
12:00 +27°C° 0 mm 1 mps 735 mmHg 63%
13:00 +27°C° 0 mm 1 mps 735 mmHg 62%
14:00 +27°C° 0 mm 1 mps 735 mmHg 60%
15:00 +27°C° 0 mm 1 mps 735 mmHg 62%
16:00 +27°C° 0 mm 1 mps 735 mmHg 64%
17:00 +27°C° 0 mm 1 mps 734 mmHg 67%
18:00 +25°C° 0 mm 1 mps 734 mmHg 71%
19:00 +24°C° 0 mm 1 mps 734 mmHg 74%
20:00 +22°C° 0 mm 1 mps 734 mmHg 78%
21:00 +22°C° 0 mm 1 mps 734 mmHg 80%
22:00 +21°C° 0 mm 1 mps 734 mmHg 81%
23:00 +21°C° 0 mm 1 mps 734 mmHg 83%

Day after tomorrow, 7 July, Tuesday

Time Temperature Precipitation Wind Pressure Humidity
00:00 +20°C° 0 mm 1 mps 734 mmHg 84%
01:00 +19°C° 0 mm 2 mps 734 mmHg 86%
02:00 +19°C° 0 mm 2 mps 734 mmHg 88%
03:00 +19°C° 0 mm 2 mps 734 mmHg 89%
04:00 +20°C° 0 mm 2 mps 734 mmHg 90%
05:00 +20°C° 0 mm 2 mps 734 mmHg 90%
06:00 +23°C° 0.1 mm 2 mps 734 mmHg 87%
07:00 +24°C° 0.1 mm 3 mps 733 mmHg 85%
08:00 +26°C° 0.1 mm 3 mps 733 mmHg 82%
09:00 +27°C° 0.1 mm 3 mps 733 mmHg 77%
10:00 +28°C° 0.1 mm 3 mps 733 mmHg 72%
11:00 +29°C° 0.1 mm 3 mps 733 mmHg 67%
12:00 +29°C° 0.6 mm 3 mps 732 mmHg 68%
13:00 +29°C° 0.6 mm 3 mps 732 mmHg 69%
14:00 +30°C° 0.6 mm 3 mps 732 mmHg 70%
15:00 +29°C° 0.3 mm 3 mps 732 mmHg 73%
16:00 +29°C° 0.3 mm 3 mps 732 mmHg 76%
17:00 +28°C° 0.3 mm 2 mps 732 mmHg 79%
18:00 +27°C° 0 mm 2 mps 732 mmHg 80%
19:00 +26°C° 0 mm 2 mps 731 mmHg 81%
20:00 +25°C° 0 mm 2 mps 731 mmHg 83%
21:00 +24°C° 0 mm 2 mps 731 mmHg 83%
22:00 +24°C° 0 mm 3 mps 731 mmHg 83%
23:00 +22°C° 0 mm 3 mps 731 mmHg 84%

8 July, Wednesday

Time Temperature Precipitation Wind Pressure Humidity
00:00 +22°C° 0 mm 3 mps 731 mmHg 81%
01:00 +21°C° 0 mm 3 mps 731 mmHg 78%
02:00 +21°C° 0 mm 3 mps 731 mmHg 75%
03:00 +21°C° 0 mm 3 mps 731 mmHg 76%
04:00 +21°C° 0 mm 3 mps 731 mmHg 77%
05:00 +21°C° 0 mm 3 mps 731 mmHg 79%
06:00 +24°C° 0 mm 3 mps 731 mmHg 76%
07:00 +25°C° 0 mm 4 mps 731 mmHg 73%
08:00 +27°C° 0 mm 4 mps 731 mmHg 70%
09:00 +27°C° 0 mm 4 mps 731 mmHg 70%
10:00 +28°C° 0 mm 3 mps 731 mmHg 70%
11:00 +28°C° 0 mm 3 mps 731 mmHg 71%
12:00 +28°C° 0.1 mm 3 mps 731 mmHg 71%
13:00 +29°C° 0.1 mm 2 mps 732 mmHg 71%
14:00 +29°C° 0.1 mm 2 mps 732 mmHg 72%
15:00 +28°C° 1.3 mm 2 mps 732 mmHg 75%
16:00 +28°C° 1.3 mm 3 mps 732 mmHg 79%
17:00 +27°C° 1.3 mm 3 mps 732 mmHg 82%
18:00 +25°C° 0.3 mm 3 mps 732 mmHg 84%
19:00 +24°C° 0.3 mm 2 mps 732 mmHg 86%
20:00 +21°C° 0.3 mm 2 mps 732 mmHg 89%
21:00 +20°C° 0.3 mm 2 mps 732 mmHg 91%
22:00 +20°C° 0.3 mm 2 mps 732 mmHg 93%
23:00 +19°C° 0.3 mm 3 mps 732 mmHg 96%

9 July, Thursday

Time Temperature Precipitation Wind Pressure Humidity
00:00 +19°C° 0.2 mm 3 mps 732 mmHg 96%
01:00 +19°C° 0.2 mm 3 mps 732 mmHg 97%
02:00 +19°C° 0.2 mm 3 mps 732 mmHg 97%
03:00 +18°C° 0.3 mm 3 mps 732 mmHg 97%
04:00 +18°C° 0.3 mm 3 mps 732 mmHg 97%
05:00 +18°C° 0.3 mm 3 mps 733 mmHg 97%
06:00 +18°C° 0.8 mm 4 mps 733 mmHg 97%
07:00 +18°C° 0.8 mm 4 mps 733 mmHg 96%
08:00 +18°C° 0.8 mm 4 mps 733 mmHg 96%
09:00 +18°C° 0.6 mm 4 mps 733 mmHg 95%
10:00 +18°C° 0.6 mm 4 mps 733 mmHg 94%
11:00 +18°C° 0.6 mm 4 mps 733 mmHg 93%
12:00 +17°C° 0.4 mm 5 mps 733 mmHg 93%
13:00 +17°C° 0.4 mm 5 mps 733 mmHg 93%
14:00 +16°C° 0.4 mm 5 mps 733 mmHg 93%
15:00 +16°C° 0.6 mm 6 mps 733 mmHg 93%
16:00 +15°C° 0.6 mm 6 mps 733 mmHg 93%
17:00 +14°C° 0.6 mm 7 mps 733 mmHg 93%
18:00 +14°C° 0.1 mm 6 mps 733 mmHg 93%
19:00 +14°C° 0.1 mm 5 mps 734 mmHg 92%
20:00 +14°C° 0.1 mm 4 mps 734 mmHg 92%
21:00 +13°C° 0 mm 4 mps 734 mmHg 93%
22:00 +12°C° 0 mm 4 mps 735 mmHg 94%
23:00 +12°C° 0 mm 3 mps 735 mmHg 95%

10 July, Friday

Time Temperature Precipitation Wind Pressure Humidity
00:00 +11°C° 0 mm 3 mps 735 mmHg 95%
01:00 +11°C° 0 mm 3 mps 736 mmHg 95%
02:00 +11°C° 0 mm 3 mps 736 mmHg 94%
03:00 +11°C° 0 mm 3 mps 737 mmHg 94%
04:00 +12°C° 0 mm 3 mps 737 mmHg 93%
05:00 +12°C° 0 mm 3 mps 738 mmHg 92%
06:00 +13°C° 0 mm 3 mps 738 mmHg 87%
07:00 +16°C° 0 mm 3 mps 738 mmHg 82%
08:00 +17°C° 0 mm 3 mps 738 mmHg 77%
09:00 +19°C° 0 mm 3 mps 739 mmHg 74%
10:00 +20°C° 0 mm 3 mps 739 mmHg 70%
11:00 +21°C° 0 mm 3 mps 739 mmHg 67%
12:00 +21°C° 0 mm 3 mps 739 mmHg 66%
13:00 +21°C° 0 mm 3 mps 740 mmHg 65%
14:00 +22°C° 0 mm 3 mps 740 mmHg 65%
15:00 +22°C° 0 mm 3 mps 740 mmHg 67%
16:00 +22°C° 0 mm 3 mps 740 mmHg 70%
17:00 +21°C° 0 mm 3 mps 740 mmHg 73%
18:00 +20°C° 0 mm 2 mps 740 mmHg 77%
19:00 +18°C° 0 mm 2 mps 741 mmHg 81%
20:00 +17°C° 0 mm 2 mps 741 mmHg 85%
21:00 +16°C° 0 mm 2 mps 741 mmHg 86%
22:00 +15°C° 0 mm 2 mps 741 mmHg 87%
23:00 +14°C° 0 mm 2 mps 742 mmHg 88%
Show more